Regional Weather Roundup
Issued by NWS Albany, NY

Home | Current Version | Previous Version | Text Only | Print | Product List | Glossary On
Versions: 1 2 3 4 5 6 7 8 9 10 11 12 13 14 15 16 17 18 19 20 21 22 23 24 25 26 27 28 29 30 31 32 33 34 35 36 37 38 39 40 41 42 43 44 45 46 47 48 49 50
000
ASUS41 KALY 241310
RWRALY

NEW YORK STATE HOURLY WEATHER ROUNDUP
NATIONAL WEATHER SERVICE ALBANY NY
800 AM EST TUE JAN 24 2017

NOTE: "FAIR" INDICATES FEW OR NO CLOUDS BELOW 12,000 FEET WITH NO
SIGNIFICANT WEATHER AND/OR NO OBSTRUCTIONS TO VISIBILITY.

NYZ032-033-038>043-046>054-057>066-NYZ062>081-082-084-241400-
EAST


CITY           SKY/WX    TMP DP  RH WIND       PRES   REMARKS
ALBANY         LGTSLEET  33  30  88 N9        29.56S FOG     WCI  25
GLENS FALLS    LGT RAIN  34  30  85 N9        29.59S WCI  27
POUGHKEEPSIE   MIX PCPN  32  31  96 N10       29.44F FOG     WCI  24
NEWBURGH       FRZ DRZL  34  32  93 NE14G23   29.44F FOG     WCI  24
MONTGOMERY     LGT SNOW  34  31  88 NE21G28   29.42S FOG     WCI  22
WHITE PLAINS   LGT RAIN  36  33  89 N13       29.34F FOG     WCI  27
ISLIP          DRIZZLE   40  39  97 N16G28    29.30S FOG     WCI  31
NEW YORK CITY  LGT RAIN  38  35  89 N16       29.34F FOG     WCI  29
CENTRAL PARK   CLOUDY    35  35 100 NE14G25   29.37S FOG     WCI  26
$$

NYZ005>009-017-018-044>046-055-056-241400-
CENTRAL


CITY           SKY/WX    TMP DP  RH WIND       PRES   REMARKS
FULTON         LGT SNOW  31  29  92 N8        29.62F FOG     WCI  23
SYRACUSE       LGT SNOW  31  30  96 NW9       29.60F FOG     WCI  23
ROME           LGT RAIN  33  33 100 NW3       29.60F FOG
ELMIRA         LGT SNOW  32  29  88 CALM      29.57F FOG
BINGHAMTON     LGT SNOW  29  28  96 N15       29.50F FOG     WCI  18
MONTICELLO     CLOUDY    32  32 100 NW3       29.45S VSB 1
$$

NYZ026>034-041>043-087-241400-
NORTH


CITY           SKY/WX    TMP DP  RH WIND       PRES   REMARKS
WATERTOWN      FRZ RAIN  30  29  96 NE13      29.65F FOG     WCI  20
FORT DRUM      NOT AVBL
OGDENSBURG     MIX PCPN  28  26  91 NE12G21   29.71F WCI  18
MASSENA        FRZ RAIN  28  23  81 NE18G28   29.75F WCI  15
SARANAC LAKE   LGT SNOW  27  24  89 E6        29.59S FOG     WCI  20
PLATTSBURGH    FLURRIES  29  26  89 N18G29    29.70F WCI  16
$$

NYZ001>004-010>016-019>021-085-241400-
WEST


CITY           SKY/WX    TMP DP  RH WIND       PRES   REMARKS
NIAGARA FALLS  LGT SNOW  33  28  81 N10       29.69R WCI  25
BUFFALO        FLURRIES  32  29  88 N7        29.67R WCI  26
DUNKIRK        CLOUDY    33  30  88 NE7       29.68R WCI  27
JAMESTOWN      CLOUDY    30  27  86 N10       29.60R VSB 1   WCI  21
WELLSVILLE     LGT SNOW  29  27  92 N5        29.56S FOG     WCI  24
ROCHESTER      LGT SNOW  33  31  92 NE13      29.66S FOG     WCI  24
PENN YAN       LGT SNOW  31  28  89 VRB5      29.61S FOG     WCI  26
$$

             KEY
       WCI = WIND CHILL INDEX
       VSB = VISIBILITY
       HX  = HEAT INDEX
$$



USA.gov is the U.S. government's official web portal to all federal, state and local government web resources and services.